Location: ???? ?????
(30.0052°N, 31.2891°E)
Time: 19:30:50
(UTC+00:00)

Cosmos 1331 Rocket - Pass Details

Date: 05 October 2022
Orbit: 748 x 778 km, 74.0° (Epoch: 06 December)

Event Time Altitude Azimuth Distance (km) Brightness Sun altitude
Exits shadow 02:20:07 39° 293° (WNW) 1,117 4.4 -20.3°
Drops below altitude 10° 02:24:49 10° 359° (N) 2,271 6.5 -19.3°
Sets 02:27:20 0° 7° (N) 3,200 7.4 -18.8°
